Location: Brunembert
(50.7122°N, 1.8935°E)
Time: 04:04:04
(UTC+00:00)

Cosmos 2208 Rocket - Pass Details

Date: 22 April 2021
Orbit: 754 x 806 km, 74.0° (Epoch: 06 May)

Event Time Altitude Azimuth Distance (km) Brightness Sun altitude
Rises 22:24:22 0° 334° (NNW) 3,274 8.7 -24.0°
Reaches altitude 10° 22:26:45 10° 333° (NNW) 2,350 7.6 -24.2°
Maximum altitude 22:32:05 76° 249° (WSW) 820 4.0 -24.5°
Enters shadow 22:32:47 65° 192° (SSW) 870 4.0 -24.5°
